Sheridan, WY

10:18 AM MDT on April 28, 2017 (GMT -0600)
South Sheridan | | Change Station
Active Advisory: Winter Storm Warning

Elev 3770 ft 44.79 °N, 106.95 °W | Updated 12 seconds ago

Rain
Rain
38.7 °F
Feels Like 39 °F
N
0.0
Wind Variable Wind from WSW
Gusts 0.0 mph

Today
High -- | Low -- °F
--% Chance of Precip.
Yesterday
High -- | Low -- °F
Precip. -- in
Pressure 29.95 in
Visibility 9.0 miles
Clouds Few 1000 ft
Mostly Cloudy 3000 ft
Overcast 5000 ft
Windchill 39 °F
Dew Point 35 °F
Humidity 87%
Rainfall 0.72 in
Snow Depth Not available.
6:01 AM 8:09 PM
Waxing Crescent, 7% visible
SPECI KSHR 281616Z AUTO 32004KT 9SM FEW010 BKN030 OVC050 03/M01 A2995 RMK AO2 SNE15 P0001 T00331006
Pressure 29.95 in
Visibility 9.0 miles
Clouds Few 1000 ft
Mostly Cloudy 3000 ft
Overcast 5000 ft
Windchill 39 °F
Dew Point 35 °F
Humidity 87%
Rainfall 0.72 in
Snow Depth Not available.
6:01 AM 8:09 PM
Waxing Crescent, 7% visible
SPECI KSHR 281616Z AUTO 32004KT 9SM FEW010 BKN030 OVC050 03/M01 A2995 RMK AO2 SNE15 P0001 T00331006

Get Your Daily Forecast Email!

Thanks for signing up!

Be on the lookout for a verification email in your inbox.

You'll start receiving severe weather alerts in your inbox..

×

10-Day Weather Forecast

Almanac

Astronomy

Apr. 28, 2017 Rise Set
Actual Time
Civil Twilight
Nautical Twilight
Astronomical Twilight
Moon
Length of Visible Light
Length of Day
Tomorrow will be .
, % of the Moon is Illuminated

Today's Extremes

State Highs State Lows

Community

WunderPhotos

WunderBlog® & News

Nearby

Air Quality

  Air Quality AQ Index Pollutant
Not available.

Snow Depth

Station Depth Elevation

Earthquake Activity

City Distance Mag. Time & Date
Minimum magnitude displayed is 2.5.

Coastal Water Temperatures

Place Temperature

Stations

Nearby Weather Stations

Station Location Temp. Windchill Dew Point Humidity Wind Precip. Elev Updated Type
                   

Watches & Warnings

Winter Storm Warning
Issued: 9:40 AM MDT Apr. 28, 2017 – National Weather Service

... Winter Storm Warning remains in effect until midnight MDT
tonight...

* impacts... periods of wet snow will cause difficult travel
conditions due to poor visibility and snow packed or slushy
roads. This includes portions of Interstate 90. Power outages
are possible.

* Timing... snow will continue through today... tapering off late.

* Snow accumulation... nearly a foot of snow has been reported in
the higher foothills west of Sheridan. Additional snowfall of 2
to 4 inches can be expected, mainly west of Interstate 90.

Precautionary/preparedness actions...

A Winter Storm Warning means a significant amount of snow is
expected or occurring. Visibility will be quite poor at times
making travel very hazardous.